Year,Month,Day,Hour,Minute,Value (Times are PST for temperature in C)
2011,05,20,00,00,10.80
2011,05,20,00,01,10.80
2011,05,20,00,02,10.80
2011,05,20,00,03,10.90
2011,05,20,00,04,10.90
2011,05,20,00,05,11.00
2011,05,20,00,06,11.10
2011,05,20,00,07,11.10
2011,05,20,00,08,11.10
2011,05,20,00,09,11.10
2011,05,20,00,10,11.20
2011,05,20,00,11,11.20
2011,05,20,00,12,11.20
2011,05,20,00,13,11.20
2011,05,20,00,14,11.20
2011,05,20,00,15,11.20
2011,05,20,00,16,11.20
2011,05,20,00,17,11.20
2011,05,20,00,18,11.20
2011,05,20,00,19,11.30
2011,05,20,00,20,11.30
2011,05,20,00,21,11.30
2011,05,20,00,22,11.30
2011,05,20,00,23,11.30
2011,05,20,00,24,11.30
2011,05,20,00,25,11.30
2011,05,20,00,26,11.30
2011,05,20,00,27,11.30
2011,05,20,00,28,11.30
2011,05,20,00,29,11.30
2011,05,20,00,30,11.20
2011,05,20,00,31,11.20
2011,05,20,00,32,11.20
2011,05,20,00,33,11.20
2011,05,20,00,34,11.20
2011,05,20,00,35,11.20
2011,05,20,00,36,11.20
2011,05,20,00,37,11.20
2011,05,20,00,38,11.20
2011,05,20,00,39,11.20
2011,05,20,00,40,11.20
2011,05,20,00,41,11.10
2011,05,20,00,42,11.20
2011,05,20,00,43,11.20
2011,05,20,00,44,11.20
2011,05,20,00,45,11.20
2011,05,20,00,46,11.20
2011,05,20,00,47,11.10
2011,05,20,00,48,11.10
2011,05,20,00,49,11.10
2011,05,20,00,50,11.10
2011,05,20,00,51,11.10
2011,05,20,00,52,11.10
2011,05,20,00,53,11.20
2011,05,20,00,54,11.20
2011,05,20,00,55,11.20
2011,05,20,00,56,11.20
2011,05,20,00,57,11.10
2011,05,20,00,58,11.00
2011,05,20,00,59,11.00
2011,05,20,01,00,10.90
2011,05,20,01,01,10.80
2011,05,20,01,02,10.80
2011,05,20,01,03,10.80
2011,05,20,01,04,10.80
2011,05,20,01,05,10.80
2011,05,20,01,06,10.80
2011,05,20,01,07,10.80
2011,05,20,01,08,10.80
2011,05,20,01,09,10.80
2011,05,20,01,10,10.80
2011,05,20,01,11,10.80
2011,05,20,01,12,10.80
2011,05,20,01,13,10.80
2011,05,20,01,14,10.80
2011,05,20,01,15,10.80
2011,05,20,01,18,10.70
2011,05,20,01,19,10.80
2011,05,20,01,20,10.80
2011,05,20,01,21,10.80
2011,05,20,01,22,10.90
2011,05,20,01,23,10.90
2011,05,20,01,24,10.90
2011,05,20,01,25,11.00
2011,05,20,01,26,11.00
2011,05,20,01,27,11.00
2011,05,20,01,28,11.00
2011,05,20,01,29,11.00
2011,05,20,01,30,11.00
2011,05,20,01,31,10.90
2011,05,20,01,32,10.90
2011,05,20,01,33,11.00
2011,05,20,01,34,11.00
2011,05,20,01,35,11.00
2011,05,20,01,36,11.10
2011,05,20,01,37,11.10
2011,05,20,01,38,11.00
2011,05,20,01,39,11.00
2011,05,20,01,40,10.90
2011,05,20,01,41,10.90
2011,05,20,01,42,10.90
2011,05,20,01,43,10.80
2011,05,20,01,44,10.80
2011,05,20,01,45,10.70
2011,05,20,01,46,10.70
2011,05,20,01,47,10.60
2011,05,20,01,48,10.60
2011,05,20,01,49,10.60
2011,05,20,01,50,10.50
2011,05,20,01,51,10.50
2011,05,20,01,52,10.40
2011,05,20,01,53,10.40
2011,05,20,01,54,10.30
2011,05,20,01,55,10.30
2011,05,20,01,56,10.30
2011,05,20,01,57,10.20
2011,05,20,01,58,10.10
2011,05,20,01,59,10.10
2011,05,20,02,00,10.00
2011,05,20,02,01,10.00
2011,05,20,02,02,9.90
2011,05,20,02,03,9.80
2011,05,20,02,04,9.80
2011,05,20,02,05,9.70
2011,05,20,02,06,9.60
2011,05,20,02,07,9.60
2011,05,20,02,08,9.50
2011,05,20,02,09,9.30
2011,05,20,02,10,9.30
2011,05,20,02,11,9.20
2011,05,20,02,12,9.10
2011,05,20,02,13,9.00
2011,05,20,02,14,8.90
2011,05,20,02,15,8.80
2011,05,20,02,16,8.70
2011,05,20,02,17,8.60
2011,05,20,02,18,8.60
2011,05,20,02,19,8.50
2011,05,20,02,20,8.50
2011,05,20,02,21,8.40
2011,05,20,02,22,8.40
2011,05,20,02,23,8.30
2011,05,20,02,24,8.30
2011,05,20,02,25,8.30
2011,05,20,02,26,8.20
2011,05,20,02,27,8.20
2011,05,20,02,28,8.10
2011,05,20,02,29,8.10
2011,05,20,02,30,8.10
2011,05,20,02,31,8.00
2011,05,20,02,32,8.00
2011,05,20,02,33,8.00
2011,05,20,02,34,7.90
2011,05,20,02,35,7.90
2011,05,20,02,36,7.90
2011,05,20,02,37,7.90
2011,05,20,02,38,7.90
2011,05,20,02,39,7.90
2011,05,20,02,40,7.90
2011,05,20,02,41,7.90
2011,05,20,02,42,7.90
2011,05,20,02,43,7.90
2011,05,20,02,44,7.90
2011,05,20,02,45,7.90
2011,05,20,02,46,7.90
2011,05,20,02,47,7.90
2011,05,20,02,48,7.90
2011,05,20,02,49,7.90
2011,05,20,02,50,7.90
2011,05,20,02,51,7.90
2011,05,20,02,52,7.90
2011,05,20,02,53,8.00
2011,05,20,02,54,8.00
2011,05,20,02,55,8.10
2011,05,20,02,56,8.10
2011,05,20,02,57,8.20
2011,05,20,02,58,8.20
2011,05,20,02,59,8.30
2011,05,20,03,00,8.30
2011,05,20,03,01,8.30
2011,05,20,03,02,8.30
2011,05,20,03,06,8.30
2011,05,20,03,07,8.20
2011,05,20,03,08,8.10
2011,05,20,03,09,8.00
2011,05,20,03,10,8.00
2011,05,20,03,11,7.90
2011,05,20,03,12,7.80
2011,05,20,03,13,7.80
2011,05,20,03,14,7.70
2011,05,20,03,15,7.70
2011,05,20,03,16,7.60
2011,05,20,03,17,7.60
2011,05,20,03,18,7.60
2011,05,20,03,19,7.50
2011,05,20,03,20,7.50
2011,05,20,03,21,7.40
2011,05,20,03,22,7.40
2011,05,20,03,23,7.40
2011,05,20,03,24,7.30
2011,05,20,03,25,7.30
2011,05,20,03,26,7.30
2011,05,20,03,27,7.30
2011,05,20,03,28,7.30
2011,05,20,03,29,7.20
2011,05,20,03,30,7.20
2011,05,20,03,31,7.20
2011,05,20,03,32,7.20
2011,05,20,03,33,7.20
2011,05,20,03,34,7.20
2011,05,20,03,35,7.20
2011,05,20,03,36,7.10
2011,05,20,03,37,7.10
2011,05,20,03,38,7.10
2011,05,20,03,39,7.00
2011,05,20,03,40,7.00
2011,05,20,03,41,6.90
2011,05,20,03,42,6.90
2011,05,20,03,43,6.90
2011,05,20,03,44,6.80
2011,05,20,03,45,6.80
2011,05,20,03,46,6.80
2011,05,20,03,47,6.70
2011,05,20,03,48,6.70
2011,05,20,03,49,6.70
2011,05,20,03,50,6.60
2011,05,20,03,51,6.60
2011,05,20,03,52,6.50
2011,05,20,03,53,6.50
2011,05,20,03,54,6.40
2011,05,20,03,55,6.40
2011,05,20,03,56,6.40
2011,05,20,03,57,6.30
2011,05,20,03,58,6.30
2011,05,20,03,59,6.30
2011,05,20,04,00,6.30
2011,05,20,04,01,6.30
2011,05,20,04,02,6.30
2011,05,20,04,03,6.30
2011,05,20,04,04,6.30
2011,05,20,04,05,6.30
2011,05,20,04,06,6.40
2011,05,20,04,07,6.40
2011,05,20,04,08,6.40
2011,05,20,04,09,6.40
2011,05,20,04,10,6.40
2011,05,20,04,11,6.40
2011,05,20,04,12,6.40
2011,05,20,04,13,6.40
2011,05,20,04,14,6.40
2011,05,20,04,15,6.40
2011,05,20,04,16,6.40
2011,05,20,04,17,6.30
2011,05,20,04,18,6.30
2011,05,20,04,19,6.30
2011,05,20,04,20,6.30
2011,05,20,04,21,6.20
2011,05,20,04,22,6.20
2011,05,20,04,23,6.20
2011,05,20,04,24,6.20
2011,05,20,04,25,6.20
2011,05,20,04,26,6.10
2011,05,20,04,27,6.10
2011,05,20,04,28,6.10
2011,05,20,04,29,6.10
2011,05,20,04,30,6.10
2011,05,20,04,31,6.00
2011,05,20,04,32,6.00
2011,05,20,04,33,6.00
2011,05,20,04,34,6.00
2011,05,20,04,35,6.00
2011,05,20,04,36,6.00
2011,05,20,04,37,6.00
2011,05,20,04,38,6.00
2011,05,20,04,39,6.00
2011,05,20,04,40,6.00
2011,05,20,04,41,6.10
2011,05,20,04,42,6.20
2011,05,20,04,43,6.20
2011,05,20,04,44,6.20
2011,05,20,04,45,6.30
2011,05,20,04,46,6.40
2011,05,20,04,47,6.40
2011,05,20,04,48,6.50
2011,05,20,04,49,6.50
2011,05,20,04,50,6.60
2011,05,20,04,51,6.70
2011,05,20,04,52,6.70
2011,05,20,04,53,6.80
2011,05,20,04,54,6.80
2011,05,20,04,55,6.90
2011,05,20,04,56,6.90
2011,05,20,04,57,6.90
2011,05,20,04,58,7.00
2011,05,20,04,59,7.00
2011,05,20,05,00,6.90
2011,05,20,05,01,6.90
2011,05,20,05,02,6.90
2011,05,20,05,03,6.90
2011,05,20,05,04,6.90
2011,05,20,05,05,6.90
2011,05,20,05,06,6.80
2011,05,20,05,07,6.80
2011,05,20,05,08,6.80
2011,05,20,05,09,6.80
2011,05,20,05,10,6.80
2011,05,20,05,11,6.70
2011,05,20,05,12,6.70
2011,05,20,05,13,6.70
2011,05,20,05,14,6.60
2011,05,20,05,15,6.60
2011,05,20,05,16,6.60
2011,05,20,05,17,6.50
2011,05,20,05,18,6.50
2011,05,20,05,19,6.40
2011,05,20,05,20,6.40
2011,05,20,05,21,6.30
2011,05,20,05,22,6.30
2011,05,20,05,23,6.20
2011,05,20,05,24,6.20
2011,05,20,05,25,6.20
2011,05,20,05,26,6.20
2011,05,20,05,27,6.20
2011,05,20,05,28,6.20
2011,05,20,05,29,6.20
2011,05,20,05,30,6.10
2011,05,20,05,31,6.10
2011,05,20,05,32,6.10
2011,05,20,05,33,6.10
2011,05,20,05,34,6.00
2011,05,20,05,35,6.00
2011,05,20,05,36,5.90
2011,05,20,05,37,5.90
2011,05,20,05,38,5.90
2011,05,20,05,39,5.90
2011,05,20,05,40,5.80
2011,05,20,05,41,5.80
2011,05,20,05,42,5.80
2011,05,20,05,43,5.80
2011,05,20,05,44,5.70
2011,05,20,05,45,5.70
2011,05,20,05,46,5.70
2011,05,20,05,47,5.70
2011,05,20,05,48,5.60
2011,05,20,05,49,5.60
2011,05,20,05,50,5.60
2011,05,20,05,51,5.50
2011,05,20,05,52,5.50
2011,05,20,05,53,5.50
2011,05,20,05,54,5.40
2011,05,20,05,55,5.40
2011,05,20,05,56,5.40
2011,05,20,05,57,5.40
2011,05,20,05,58,5.40
2011,05,20,05,59,5.40
2011,05,20,06,00,5.40
2011,05,20,06,01,5.30
2011,05,20,06,02,5.30
2011,05,20,06,03,5.30
2011,05,20,06,04,5.30
2011,05,20,06,05,5.30
2011,05,20,06,06,5.30
2011,05,20,06,07,5.30
2011,05,20,06,08,5.30
2011,05,20,06,09,5.30
2011,05,20,06,10,5.30
2011,05,20,06,11,5.40
2011,05,20,06,12,5.40
2011,05,20,06,13,5.40
2011,05,20,06,14,5.40
2011,05,20,06,15,5.40
2011,05,20,06,16,5.40
2011,05,20,06,17,5.40
2011,05,20,06,18,5.50
2011,05,20,06,19,5.50
2011,05,20,06,20,5.60
2011,05,20,06,21,5.60
2011,05,20,06,22,5.60
2011,05,20,06,23,5.60
2011,05,20,06,24,5.70
2011,05,20,06,25,5.70
2011,05,20,06,26,5.70
2011,05,20,06,27,5.70
2011,05,20,06,28,5.70
2011,05,20,06,29,5.80
2011,05,20,06,30,5.80
2011,05,20,06,31,5.80
2011,05,20,06,32,5.80
2011,05,20,06,33,5.80
2011,05,20,06,34,5.90
2011,05,20,06,35,5.90
2011,05,20,06,36,5.90
2011,05,20,06,37,5.90
2011,05,20,06,38,5.90
2011,05,20,06,39,5.90
2011,05,20,06,40,5.90
2011,05,20,06,41,5.90
2011,05,20,06,42,5.90
2011,05,20,06,43,5.90
2011,05,20,06,44,5.90
2011,05,20,06,45,6.00
2011,05,20,06,46,6.00
2011,05,20,06,47,6.00
2011,05,20,06,48,6.00
2011,05,20,06,49,6.00
2011,05,20,06,50,6.10
2011,05,20,06,51,6.10
2011,05,20,06,52,6.10
2011,05,20,06,53,6.10
2011,05,20,06,54,6.10
2011,05,20,06,55,6.10
2011,05,20,06,56,6.10
2011,05,20,06,57,6.10
2011,05,20,06,58,6.10
2011,05,20,06,59,6.10
2011,05,20,07,00,6.10
2011,05,20,07,01,6.20
2011,05,20,07,02,6.20
2011,05,20,07,03,6.20
2011,05,20,07,04,6.20
2011,05,20,07,05,6.30
2011,05,20,07,06,6.30
2011,05,20,07,07,6.30
2011,05,20,07,08,6.40
2011,05,20,07,09,6.40
2011,05,20,07,10,6.50
2011,05,20,07,11,6.50
2011,05,20,07,12,6.60
2011,05,20,07,13,6.70
2011,05,20,07,14,6.70
2011,05,20,07,15,6.80
2011,05,20,07,16,6.80
2011,05,20,07,17,6.90
2011,05,20,07,20,7.00
2011,05,20,07,21,7.10
2011,05,20,07,22,7.10
2011,05,20,07,23,7.20
2011,05,20,07,24,7.20
2011,05,20,07,25,7.20
2011,05,20,07,26,7.30
2011,05,20,07,27,7.40
2011,05,20,07,28,7.50
2011,05,20,07,29,7.60
2011,05,20,07,30,7.70
2011,05,20,07,31,7.70
2011,05,20,07,32,7.80
2011,05,20,07,33,7.90
2011,05,20,07,34,8.00
2011,05,20,07,35,8.10
2011,05,20,07,36,8.20
2011,05,20,07,37,8.30
2011,05,20,07,38,8.30
2011,05,20,07,39,8.50
2011,05,20,07,40,8.60
2011,05,20,07,41,8.70
2011,05,20,07,42,8.80
2011,05,20,07,43,8.90
2011,05,20,07,44,9.00
2011,05,20,07,45,9.20
2011,05,20,07,46,9.30
2011,05,20,07,47,9.40
2011,05,20,07,48,9.60
2011,05,20,07,49,9.70
2011,05,20,07,50,9.90
2011,05,20,07,51,10.10
2011,05,20,07,52,10.30
2011,05,20,07,53,10.40
2011,05,20,07,54,10.60
2011,05,20,07,55,10.80
2011,05,20,07,56,10.90
2011,05,20,07,57,11.10
2011,05,20,07,58,11.30
2011,05,20,07,59,11.50
2011,05,20,08,00,11.60
2011,05,20,08,01,11.70
2011,05,20,08,02,11.80
2011,05,20,08,03,12.00
2011,05,20,08,04,12.10
2011,05,20,08,05,12.10
2011,05,20,08,06,12.20
2011,05,20,08,07,12.30
2011,05,20,08,08,12.40
2011,05,20,08,09,12.40
2011,05,20,08,10,12.50
2011,05,20,08,11,12.60
2011,05,20,08,12,12.60
2011,05,20,08,13,12.70
2011,05,20,08,14,12.80
2011,05,20,08,15,12.80
2011,05,20,08,16,12.90
2011,05,20,08,17,13.00
2011,05,20,08,18,13.00
2011,05,20,08,19,13.10
2011,05,20,08,20,13.10
2011,05,20,08,21,13.10
2011,05,20,08,22,13.20
2011,05,20,08,23,13.20
2011,05,20,08,24,13.30
2011,05,20,08,25,13.30
2011,05,20,08,26,13.40
2011,05,20,08,27,13.40
2011,05,20,08,28,13.50
2011,05,20,08,29,13.60
2011,05,20,08,30,13.70
2011,05,20,08,31,13.70
2011,05,20,08,32,13.80
2011,05,20,08,33,13.80
2011,05,20,08,34,13.80
2011,05,20,08,35,13.90
2011,05,20,08,36,14.00
2011,05,20,08,37,14.00
2011,05,20,08,38,14.10
2011,05,20,08,39,14.10
2011,05,20,08,40,14.10
2011,05,20,08,41,14.10
2011,05,20,08,42,14.20
2011,05,20,08,43,14.20
2011,05,20,08,44,14.20
2011,05,20,08,45,14.10
2011,05,20,08,46,14.10
2011,05,20,08,47,14.10
2011,05,20,08,48,14.10
2011,05,20,08,49,14.10
2011,05,20,08,50,14.10
2011,05,20,08,51,14.10
2011,05,20,08,52,14.00
2011,05,20,08,53,14.00
2011,05,20,08,54,14.00
2011,05,20,08,55,14.00
2011,05,20,08,56,14.00
2011,05,20,08,57,14.00
2011,05,20,08,58,13.90
2011,05,20,08,59,13.90
2011,05,20,09,00,13.90
2011,05,20,09,01,13.80
2011,05,20,09,02,13.80
2011,05,20,09,03,13.70
2011,05,20,09,04,13.70
2011,05,20,09,05,13.70
2011,05,20,09,06,13.70
2011,05,20,09,07,13.70
2011,05,20,09,08,13.70
2011,05,20,09,09,13.80
2011,05,20,09,10,13.70
2011,05,20,09,11,13.70
2011,05,20,09,12,13.60
2011,05,20,09,13,13.60
2011,05,20,09,14,13.70
2011,05,20,09,15,13.70
2011,05,20,09,16,13.70
2011,05,20,09,17,13.80
2011,05,20,09,18,13.80
2011,05,20,09,19,13.90
2011,05,20,09,20,14.00
2011,05,20,09,21,14.00
2011,05,20,09,22,14.10
2011,05,20,09,23,14.20
2011,05,20,09,24,14.30
2011,05,20,09,25,14.40
2011,05,20,09,26,14.50
2011,05,20,09,27,14.50
2011,05,20,09,28,14.50
2011,05,20,09,29,14.50
2011,05,20,09,30,14.60
2011,05,20,09,31,14.60
2011,05,20,09,32,14.60
2011,05,20,09,33,14.60
2011,05,20,09,34,14.60
2011,05,20,09,35,14.60
2011,05,20,09,36,14.60
2011,05,20,09,37,14.60
2011,05,20,09,38,14.70
2011,05,20,09,39,14.70
2011,05,20,09,40,14.70
2011,05,20,09,41,14.70
2011,05,20,09,42,14.60
2011,05,20,09,43,14.50
2011,05,20,09,44,14.50
2011,05,20,09,45,14.40
2011,05,20,09,46,14.30
2011,05,20,09,47,14.30
2011,05,20,09,48,14.20
2011,05,20,09,49,14.20
2011,05,20,09,50,14.20
2011,05,20,09,51,14.20
2011,05,20,09,52,14.20
2011,05,20,09,53,14.30
2011,05,20,09,54,14.30
2011,05,20,09,55,14.40
2011,05,20,09,57,14.40
2011,05,20,09,58,14.40
2011,05,20,09,59,14.40
2011,05,20,10,00,14.50
2011,05,20,10,01,14.50
2011,05,20,10,02,14.60
2011,05,20,10,03,14.70
2011,05,20,10,05,14.80
2011,05,20,10,06,14.90
2011,05,20,10,07,15.00
2011,05,20,10,08,15.00
2011,05,20,10,09,15.00
2011,05,20,10,10,15.00
2011,05,20,10,11,15.00
2011,05,20,10,12,15.00
2011,05,20,10,13,15.00
2011,05,20,10,14,15.00
2011,05,20,10,15,15.10
2011,05,20,10,16,15.20
2011,05,20,10,17,15.30
2011,05,20,10,18,15.40
2011,05,20,10,19,15.30
2011,05,20,10,20,15.30
2011,05,20,10,21,15.40
2011,05,20,10,22,15.40
2011,05,20,10,23,15.40
2011,05,20,10,24,15.40
2011,05,20,10,25,15.40
2011,05,20,10,26,15.50
2011,05,20,10,27,15.40
2011,05,20,10,28,15.40
2011,05,20,10,29,15.30
2011,05,20,10,30,15.20
2011,05,20,10,31,15.00
2011,05,20,10,32,15.00
2011,05,20,10,33,15.00
2011,05,20,10,34,15.00
2011,05,20,10,35,15.00
2011,05,20,10,36,15.10
2011,05,20,10,37,15.20
2011,05,20,10,38,15.20
2011,05,20,10,39,15.00
2011,05,20,10,40,15.00
2011,05,20,10,41,15.00
2011,05,20,10,42,15.00
2011,05,20,10,43,15.00
2011,05,20,10,44,15.00
2011,05,20,10,45,15.00
2011,05,20,10,46,15.00
2011,05,20,10,47,15.00
2011,05,20,10,48,15.00
2011,05,20,10,49,15.10
2011,05,20,10,50,15.20
2011,05,20,10,51,15.30
2011,05,20,10,52,15.40
2011,05,20,10,53,15.60
2011,05,20,10,54,15.70
2011,05,20,10,55,15.70
2011,05,20,10,56,15.70
2011,05,20,10,57,15.70
2011,05,20,10,58,15.60
2011,05,20,10,59,15.50
2011,05,20,11,00,15.40
2011,05,20,11,01,15.30
2011,05,20,11,02,15.20
2011,05,20,11,03,15.20
2011,05,20,11,04,15.20
2011,05,20,11,05,15.00
2011,05,20,11,06,15.00
2011,05,20,11,07,15.00
2011,05,20,11,08,15.00
2011,05,20,11,09,15.00
2011,05,20,11,10,15.00
2011,05,20,11,11,15.00
2011,05,20,11,12,15.00
2011,05,20,11,13,15.00
2011,05,20,11,14,15.00
2011,05,20,11,15,15.00
2011,05,20,11,16,15.00
2011,05,20,11,17,15.00
2011,05,20,11,18,15.00
2011,05,20,11,19,15.00
2011,05,20,11,20,15.10
2011,05,20,11,21,15.20
2011,05,20,11,22,15.30
2011,05,20,11,23,15.30
2011,05,20,11,24,15.20
2011,05,20,11,25,15.30
2011,05,20,11,26,15.40
2011,05,20,11,27,15.40
2011,05,20,11,28,15.40
2011,05,20,11,29,15.40
2011,05,20,11,30,15.50
2011,05,20,11,31,15.50
2011,05,20,11,32,15.60
2011,05,20,11,33,15.70
2011,05,20,11,34,15.70
2011,05,20,11,35,15.70
2011,05,20,11,36,15.70
2011,05,20,11,37,15.70
2011,05,20,11,38,15.70
2011,05,20,11,39,15.70
2011,05,20,11,40,15.60
2011,05,20,11,41,15.50
2011,05,20,11,42,15.40
2011,05,20,11,43,15.30
2011,05,20,11,44,15.30
2011,05,20,11,45,15.40
2011,05,20,11,46,15.40
2011,05,20,11,47,15.50
2011,05,20,11,48,15.50
2011,05,20,11,49,15.50
2011,05,20,11,50,15.50
2011,05,20,11,51,15.40
2011,05,20,11,52,15.50
2011,05,20,11,53,15.50
2011,05,20,11,54,15.60
2011,05,20,11,55,15.70
2011,05,20,11,56,15.80
2011,05,20,11,57,15.90
2011,05,20,11,58,16.00
2011,05,20,11,59,16.00
2011,05,20,12,00,16.00
2011,05,20,12,01,16.00
2011,05,20,12,02,15.90
2011,05,20,12,03,16.00
2011,05,20,12,04,16.00
2011,05,20,12,05,16.00
2011,05,20,12,06,16.10
2011,05,20,12,07,16.10
2011,05,20,12,08,16.10
2011,05,20,12,09,16.20
2011,05,20,12,10,16.20
2011,05,20,12,11,16.20
2011,05,20,12,12,16.20
2011,05,20,12,13,16.20
2011,05,20,12,14,16.20
2011,05,20,12,15,16.20
2011,05,20,12,16,16.20
2011,05,20,12,17,16.20
2011,05,20,12,18,16.20
2011,05,20,12,19,16.30
2011,05,20,12,20,16.40
2011,05,20,12,21,16.50
2011,05,20,12,22,16.60
2011,05,20,12,23,16.60
2011,05,20,12,24,16.70
2011,05,20,12,25,16.60
2011,05,20,12,26,16.50
2011,05,20,12,27,16.50
2011,05,20,12,28,16.40
2011,05,20,12,29,16.40
2011,05,20,12,30,16.40
2011,05,20,12,31,16.50
2011,05,20,12,32,16.50
2011,05,20,12,33,16.50
2011,05,20,12,34,16.40
2011,05,20,12,35,16.40
2011,05,20,12,36,16.50
2011,05,20,12,37,16.50
2011,05,20,12,38,16.50
2011,05,20,12,39,16.50
2011,05,20,12,40,16.60
2011,05,20,12,41,16.70
2011,05,20,12,42,16.80
2011,05,20,12,43,16.90
2011,05,20,12,44,16.90
2011,05,20,12,45,16.90
2011,05,20,12,46,16.90
2011,05,20,12,47,16.90
2011,05,20,12,48,16.90
2011,05,20,12,49,17.00
2011,05,20,12,50,17.10
2011,05,20,12,51,17.20
2011,05,20,12,52,17.20
2011,05,20,12,53,17.20
2011,05,20,12,54,17.10
2011,05,20,12,55,17.10
2011,05,20,12,56,17.10
2011,05,20,12,57,17.10
2011,05,20,12,58,17.10
2011,05,20,12,59,17.00
2011,05,20,13,00,17.10
2011,05,20,13,01,17.10
2011,05,20,13,02,17.20
2011,05,20,13,03,17.30
2011,05,20,13,04,17.30
2011,05,20,13,05,17.20
2011,05,20,13,06,17.20
2011,05,20,13,07,17.20
2011,05,20,13,08,17.10
2011,05,20,13,09,17.00
2011,05,20,13,10,17.00
2011,05,20,13,11,17.00
2011,05,20,13,12,16.90
2011,05,20,13,13,16.90
2011,05,20,13,14,16.90
2011,05,20,13,15,16.90
2011,05,20,13,16,17.00
2011,05,20,13,17,17.10
2011,05,20,13,18,17.20
2011,05,20,13,19,17.30
2011,05,20,13,20,17.30
2011,05,20,13,21,17.30
2011,05,20,13,22,17.30
2011,05,20,13,23,17.30
2011,05,20,13,24,17.30
2011,05,20,13,25,17.30
2011,05,20,13,26,17.40
2011,05,20,13,27,17.50
2011,05,20,13,28,17.60
2011,05,20,13,29,17.80
2011,05,20,13,30,17.80
2011,05,20,13,31,17.80
2011,05,20,13,32,17.80
2011,05,20,13,33,17.80
2011,05,20,13,34,17.80
2011,05,20,13,35,17.80
2011,05,20,13,36,17.80
2011,05,20,13,37,17.90
2011,05,20,13,38,17.90
2011,05,20,13,39,17.90
2011,05,20,13,40,17.90
2011,05,20,13,41,17.90
2011,05,20,13,42,17.90
2011,05,20,13,43,17.80
2011,05,20,13,44,17.80
2011,05,20,13,45,17.70
2011,05,20,13,46,17.50
2011,05,20,13,47,17.40
2011,05,20,13,48,17.30
2011,05,20,13,49,17.30
2011,05,20,13,50,17.20
2011,05,20,13,51,17.20
2011,05,20,13,52,17.20
2011,05,20,13,53,17.20
2011,05,20,13,54,17.30
2011,05,20,13,55,17.30
2011,05,20,13,56,17.30
2011,05,20,13,57,17.40
2011,05,20,13,58,17.40
2011,05,20,13,59,17.50
2011,05,20,14,00,17.50
2011,05,20,14,01,17.60
2011,05,20,14,02,17.60
2011,05,20,14,03,17.60
2011,05,20,14,04,17.70
2011,05,20,14,05,17.80
2011,05,20,14,06,18.00
2011,05,20,14,07,18.10
2011,05,20,14,08,18.20
2011,05,20,14,09,18.20
2011,05,20,14,10,18.30
2011,05,20,14,11,18.30
2011,05,20,14,12,18.30
2011,05,20,14,13,18.40
2011,05,20,14,14,18.50
2011,05,20,14,15,18.60
2011,05,20,14,16,18.50
2011,05,20,14,17,18.50
2011,05,20,14,18,18.50
2011,05,20,14,19,18.50
2011,05,20,14,20,18.50
2011,05,20,14,21,18.60
2011,05,20,14,22,18.60
2011,05,20,14,23,18.70
2011,05,20,14,24,18.70
2011,05,20,14,25,18.80
2011,05,20,14,26,18.90
2011,05,20,14,27,19.00
2011,05,20,14,28,19.00
2011,05,20,14,29,19.10
2011,05,20,14,30,19.10
2011,05,20,14,31,19.10
2011,05,20,14,32,19.10
2011,05,20,14,33,19.00
2011,05,20,14,34,19.00
2011,05,20,14,35,18.90
2011,05,20,14,36,18.90
2011,05,20,14,37,19.00
2011,05,20,14,38,19.00
2011,05,20,14,39,19.10
2011,05,20,14,40,19.10
2011,05,20,14,41,19.10
2011,05,20,14,42,19.20
2011,05,20,14,43,19.40
2011,05,20,14,44,19.50
2011,05,20,14,45,19.60
2011,05,20,14,46,19.70
2011,05,20,14,47,19.60
2011,05,20,14,48,19.60
2011,05,20,14,49,19.60
2011,05,20,14,50,19.70
2011,05,20,14,51,19.70
2011,05,20,14,52,19.70
2011,05,20,14,53,19.70
2011,05,20,14,54,19.80
2011,05,20,14,55,19.80
2011,05,20,14,56,19.90
2011,05,20,14,57,19.80
2011,05,20,14,58,19.80
2011,05,20,14,59,19.70
2011,05,20,15,00,19.70
2011,05,20,15,01,19.70
2011,05,20,15,02,19.70
2011,05,20,15,03,19.70
2011,05,20,15,04,19.70
2011,05,20,15,05,19.70
2011,05,20,15,06,19.70
2011,05,20,15,07,19.60
2011,05,20,15,08,19.60
2011,05,20,15,09,19.60
2011,05,20,15,10,19.50
2011,05,20,15,11,19.50
2011,05,20,15,12,19.40
2011,05,20,15,13,19.40
2011,05,20,15,14,19.30
2011,05,20,15,15,19.30
2011,05,20,15,16,19.30
2011,05,20,15,17,19.40
2011,05,20,15,18,19.40
2011,05,20,15,19,19.50
2011,05,20,15,20,19.50
2011,05,20,15,21,19.40
2011,05,20,15,22,19.40
2011,05,20,15,23,19.40
2011,05,20,15,24,19.30
2011,05,20,15,25,19.20
2011,05,20,15,26,19.20
2011,05,20,15,27,19.20
2011,05,20,15,28,19.20
2011,05,20,15,29,19.30
2011,05,20,15,30,19.30
2011,05,20,15,31,19.20
2011,05,20,15,32,19.30
2011,05,20,15,33,19.40
2011,05,20,15,34,19.50
2011,05,20,15,35,19.60
2011,05,20,15,36,19.70
2011,05,20,15,37,19.80
2011,05,20,15,38,19.90
2011,05,20,15,39,20.00
2011,05,20,15,40,20.00
2011,05,20,15,41,20.00
2011,05,20,15,42,20.00
2011,05,20,15,43,20.00
2011,05,20,15,44,20.00
2011,05,20,15,45,20.10
2011,05,20,15,46,20.20
2011,05,20,15,47,20.10
2011,05,20,15,48,20.10
2011,05,20,15,49,20.10
2011,05,20,15,50,20.20
2011,05,20,15,51,20.30
2011,05,20,15,52,20.40
2011,05,20,15,53,20.50
2011,05,20,15,54,20.60
2011,05,20,15,55,20.70
2011,05,20,15,56,20.60
2011,05,20,15,57,20.70
2011,05,20,15,58,20.80
2011,05,20,15,59,20.80
2011,05,20,16,00,20.80
2011,05,20,16,01,20.90
2011,05,20,16,02,20.90
2011,05,20,16,03,21.00
2011,05,20,16,04,21.10
2011,05,20,16,05,21.20
2011,05,20,16,06,21.20
2011,05,20,16,07,21.20
2011,05,20,16,08,21.10
2011,05,20,16,09,21.00
2011,05,20,16,10,20.90
2011,05,20,16,11,20.90
2011,05,20,16,12,20.90
2011,05,20,16,13,20.90
2011,05,20,16,14,20.90
2011,05,20,16,15,21.00
2011,05,20,16,16,21.10
2011,05,20,16,17,21.20
2011,05,20,16,18,21.20
2011,05,20,16,19,21.20
2011,05,20,16,20,21.10
2011,05,20,16,21,21.10
2011,05,20,16,22,21.10
2011,05,20,16,23,21.10
2011,05,20,16,24,21.20
2011,05,20,16,25,21.30
2011,05,20,16,26,21.40
2011,05,20,16,27,21.50
2011,05,20,16,28,21.60
2011,05,20,16,29,21.60
2011,05,20,16,30,21.70
2011,05,20,16,31,21.70
2011,05,20,16,32,21.70
2011,05,20,16,33,21.80
2011,05,20,16,34,21.80
2011,05,20,16,35,21.80
2011,05,20,16,36,21.70
2011,05,20,16,37,21.60
2011,05,20,16,38,21.40
2011,05,20,16,39,21.30
2011,05,20,16,40,21.20
2011,05,20,16,41,21.10
2011,05,20,16,42,21.10
2011,05,20,16,43,21.10
2011,05,20,16,44,21.10
2011,05,20,16,45,21.00
2011,05,20,16,46,21.00
2011,05,20,16,47,20.90
2011,05,20,16,48,20.90
2011,05,20,16,49,21.00
2011,05,20,16,50,21.10
2011,05,20,16,51,21.20
2011,05,20,16,52,21.20
2011,05,20,16,53,21.20
2011,05,20,16,54,21.10
2011,05,20,16,55,21.10
2011,05,20,16,56,21.10
2011,05,20,16,57,21.20
2011,05,20,16,58,21.20
2011,05,20,16,59,21.20
2011,05,20,17,00,21.30
2011,05,20,17,01,21.30
2011,05,20,17,02,21.40
2011,05,20,17,03,21.40
2011,05,20,17,04,21.50
2011,05,20,17,05,21.50
2011,05,20,17,06,21.60
2011,05,20,17,07,21.70
2011,05,20,17,08,21.80
2011,05,20,17,09,21.80
2011,05,20,17,10,21.80
2011,05,20,17,11,21.80
2011,05,20,17,12,21.70
2011,05,20,17,13,21.60
2011,05,20,17,14,21.50
2011,05,20,17,15,21.40
2011,05,20,17,16,21.40
2011,05,20,17,17,21.40
2011,05,20,17,18,21.40
2011,05,20,17,19,21.40
2011,05,20,17,20,21.30
2011,05,20,17,21,21.30
2011,05,20,17,22,21.20
2011,05,20,17,23,21.20
2011,05,20,17,24,21.30
2011,05,20,17,25,21.30
2011,05,20,17,26,21.30
2011,05,20,17,27,21.30
2011,05,20,17,28,21.20
2011,05,20,17,29,21.20
2011,05,20,17,30,21.10
2011,05,20,17,31,21.10
2011,05,20,17,32,21.00
2011,05,20,17,33,20.90
2011,05,20,17,34,20.90
2011,05,20,17,35,20.80
2011,05,20,17,36,20.80
2011,05,20,17,37,20.90
2011,05,20,17,38,20.90
2011,05,20,17,39,21.00
2011,05,20,17,40,21.00
2011,05,20,17,41,21.10
2011,05,20,17,42,21.10
2011,05,20,17,43,21.00